Tracking 21045 objects as of 4-Aug-2020
HD Live streaming from Space Station
objects crossing your sky now

COSMOS 1636

Track COSMOS 1636 now!
10-day predictions
COSMOS 1636 is classified as:


NORAD ID: 15618
Int'l Code: 1985-023B
Perigee: 1,481.4 km
Apogee: 1,501.2 km
Inclination: 74.1 °
Period: 115.6 minutes
Semi major axis: 7862 km
RCS: 0.6956 m2 (medium)
Launch date: March 21, 1985
Source: Commonwealth of Independent States (former USSR) (CIS)
Launch site: PLESETSK MISSILE AND SPACE COMPLEX (PKMTR)
aabbcc
Your satellite tracking list
Your tracking list is empty




NASA's NSSDC Master Catalog

Two Line Element Set (TLE):
1 15618U 85023B   20217.18405211 -.00000003  00000-0  86077-4 0  9999
2 15618  74.0556 118.0813 0012586  16.7920 151.8104 12.45319553608348
Source of the keplerian elements: AFSPC